Manistique, MI

4:53 AM EDT on September 23, 2017 (GMT -0400)
Schoolcraft County

Weather History for KISQ - December, 2013

Change the Weather History Date:

Wednesday, December 4, 2013

  Actual Average Record
Temperature  
Mean Temperature 32 °F -  
Max Temperature 42 °F 30 °F 56 °F (1961)
Min Temperature 23 °F 17 °F -3 °F (1964)
Degree Days  
Heating Degree Days 34    
Moisture  
Dew Point 28 °F    
Average Humidity 94    
Maximum Humidity 99    
Minimum Humidity 89    
Precipitation  
Precipitation 0.68 in - - ()
Sea Level Pressure  
Sea Level Pressure 29.75 in    
Wind  
Wind Speed 11 mph (ENE)    
Max Wind Speed 23 mph    
Max Gust Speed 32 mph    
Visibility 5 miles    
Events Rain , Snow    
Averages and records for this station are not official NWS values.
T = Trace of Precipitation, MM = Missing Value Source: NWS Daily Summary

Daily Weather History Graph

Daily Weather History Graph

Search for Another Location

Airport or City:

Trip Planner

Search our weather history database for the weather conditions in past years. The results will help you decide how hot, cold, wet, or windy it might be!

Date:

Astronomy

Dec. 04, 2013 Rise Set
Actual Time 8:09 AM EST 5:00 PM EST
Civil Twilight 7:35 AM EST 5:34 PM EST
Nautical Twilight 6:58 AM EST 6:11 PM EST
Astronomical Twilight 6:22 AM EST 6:47 PM EST
Moon 9:35 AM EST (12/4) 7:12 PM EST (12/4)
Length of Visible Light 9h 58m
Length of Day
8h 50m
Waxing Crescent, 4% of the Moon is Illuminated
Dec 4
Waxing Crescent
Dec 9
First Quarter
Dec 17
Full
Dec 25
Last Quarter
Jan 1
New

Hourly Weather History & Observations

Time (EST) Temp. Windchill Dew Point Humidity Pressure Visibility Wind Dir Wind Speed Gust Speed Precip Events Conditions
12:14 AM 24.8 °F 16.9 °F 23.0 °F 93% 29.92 in 1.5 mi NE 6.9 mph - N/A Snow Light Snow
12:35 AM 24.8 °F 16.1 °F 23.0 °F 93% 29.92 in 1.0 mi NE 8.1 mph - N/A Snow Snow
12:55 AM 24.8 °F 14.6 °F 23.0 °F 93% 29.90 in 1.0 mi NE 10.4 mph - 0.01 in Snow Snow
1:14 AM 24.8 °F 14.6 °F 23.0 °F 93% 29.89 in 1.2 mi ENE 10.4 mph 17.3 mph N/A Snow Snow
1:35 AM 25.0 °F 14.8 °F 23.0 °F 92% 29.90 in 7.0 mi NE 10.4 mph - N/A Snow Light Snow
1:55 AM 25.3 °F 16.7 °F 23.0 °F 91% 29.92 in 10.0 mi NE 8.1 mph - N/A Snow Light Snow
2:14 AM 25.3 °F 15.3 °F 23.0 °F 91% 29.92 in 10.0 mi NE 10.4 mph - N/A   Overcast
2:35 AM 25.2 °F 15.1 °F 23.0 °F 91% 29.92 in 7.0 mi NE 10.4 mph 17.3 mph N/A Snow Light Snow
2:54 AM 25.2 °F 15.7 °F 23.0 °F 91% 29.93 in 4.0 mi NE 9.2 mph - N/A Snow Light Snow
3:14 AM 25.2 °F 15.1 °F 23.0 °F 91% 29.92 in 3.0 mi NE 10.4 mph - N/A Snow Light Snow
3:35 AM 24.8 °F 13.4 °F 23.0 °F 93% 29.90 in 1.8 mi NE 12.7 mph - N/A Snow Light Snow
3:54 AM 24.8 °F 14.6 °F 22.8 °F 92% 29.92 in 5.0 mi NE 10.4 mph 16.1 mph N/A Snow Light Snow
4:15 AM 24.8 °F 14.6 °F 22.6 °F 91% 29.91 in 10.0 mi ENE 10.4 mph 17.3 mph N/A   Overcast
4:35 AM 24.8 °F 14.6 °F 22.5 °F 91% 29.92 in 10.0 mi ENE 10.4 mph - N/A   Overcast
4:54 AM 24.6 °F 13.8 °F 22.1 °F 90% 29.93 in 5.0 mi NE 11.5 mph - N/A Snow Light Snow
5:15 AM 24.6 °F 15.1 °F 22.1 °F 90% 29.93 in 5.0 mi NE 9.2 mph - N/A Snow Light Snow
5:35 AM 24.3 °F 13.9 °F 21.9 °F 91% 29.93 in 4.0 mi ENE 10.4 mph - N/A Snow Light Snow
5:54 AM 23.9 °F 13.5 °F 21.7 °F 91% 29.92 in 2.5 mi ENE 10.4 mph - N/A   Overcast
6:15 AM 23.9 °F 13.5 °F 21.7 °F 91% 29.91 in 5.0 mi ENE 10.4 mph - N/A   Overcast
6:34 AM 23.9 °F 12.9 °F 21.7 °F 91% 29.91 in 10.0 mi ENE 11.5 mph - N/A   Overcast
6:55 AM 24.3 °F 13.9 °F 21.7 °F 90% 29.91 in 10.0 mi ENE 10.4 mph - N/A   Overcast
7:14 AM 24.4 °F 14.2 °F 21.9 °F 90% 29.90 in 10.0 mi ENE 10.4 mph - N/A   Overcast
7:34 AM 24.6 °F 14.4 °F 22.1 °F 90% 29.90 in 10.0 mi ENE 10.4 mph - N/A Snow Light Snow
7:55 AM 24.6 °F 13.8 °F 22.1 °F 90% 29.90 in 10.0 mi ENE 11.5 mph - N/A Snow Light Snow
8:14 AM 24.8 °F 14.6 °F 22.1 °F 89% 29.90 in 10.0 mi ENE 10.4 mph - N/A Snow Light Snow
8:35 AM 24.8 °F 14.0 °F 22.5 °F 91% 29.89 in 10.0 mi ENE 11.5 mph - N/A   Overcast
8:55 AM 25.3 °F 15.3 °F 23.0 °F 91% 29.89 in 10.0 mi ENE 10.4 mph - N/A Snow Light Snow
9:14 AM 25.7 °F 16.4 °F 23.4 °F 91% 29.88 in 7.0 mi ENE 9.2 mph 16.1 mph N/A Snow Light Snow
9:35 AM 26.2 °F 15.2 °F 23.9 °F 91% 29.89 in 3.0 mi ENE 12.7 mph 17.3 mph N/A   Overcast
9:55 AM 26.6 °F 16.8 °F 24.3 °F 91% 29.88 in 5.0 mi ENE 10.4 mph 17.3 mph N/A   Overcast
10:14 AM 26.6 °F 15.7 °F 24.4 °F 92% 29.88 in 10.0 mi ENE 12.7 mph 17.3 mph N/A   Overcast
10:35 AM 26.8 °F 18.5 °F 24.4 °F 91% 29.90 in 10.0 mi ENE 8.1 mph - N/A   Overcast
10:54 AM 27.3 °F 17.7 °F 25.3 °F 92% 29.89 in 2.5 mi ENE 10.4 mph 16.1 mph N/A Snow Light Snow
11:15 AM 27.1 °F 17.5 °F 25.5 °F 94% 29.88 in 2.0 mi ENE 10.4 mph 17.3 mph N/A Snow Light Snow
11:35 AM 27.0 °F 18.0 °F 25.3 °F 94% 29.86 in 3.0 mi ENE 9.2 mph 16.1 mph N/A Snow Light Snow
11:54 AM 26.8 °F 17.1 °F 25.2 °F 94% 29.85 in 4.0 mi ENE 10.4 mph - N/A Snow Light Snow
12:15 PM 27.1 °F 16.4 °F 25.5 °F 94% 29.83 in 5.0 mi ENE 12.7 mph 18.4 mph N/A   Overcast
12:35 PM 27.3 °F 17.7 °F 25.7 °F 94% 29.82 in 10.0 mi ENE 10.4 mph - N/A   Overcast
12:54 PM 27.3 °F 18.4 °F 25.7 °F 94% 29.81 in 10.0 mi ENE 9.2 mph 16.1 mph N/A   Overcast
1:15 PM 27.5 °F 17.4 °F 26.2 °F 95% 29.80 in 5.0 mi ENE 11.5 mph 18.4 mph N/A   Overcast
1:34 PM 27.5 °F 18.0 °F 26.4 °F 96% 29.79 in 10.0 mi ENE 10.4 mph 16.1 mph N/A   Overcast
1:54 PM 28.0 °F 19.3 °F 26.6 °F 94% 29.79 in 10.0 mi East 9.2 mph 17.3 mph N/A   Overcast
2:15 PM 28.4 °F 19.1 °F 27.5 °F 96% 29.78 in 7.0 mi East 10.4 mph - N/A   Overcast
2:34 PM 29.3 °F 19.1 °F 28.2 °F 96% 29.75 in 7.0 mi East 12.7 mph 17.3 mph N/A   Overcast
2:55 PM 30.4 °F 20.5 °F 29.5 °F 96% 29.74 in 7.0 mi East 12.7 mph 17.3 mph N/A   Overcast
3:15 PM 31.6 °F 21.2 °F 30.9 °F 97% 29.72 in 3.0 mi East 15.0 mph 23.0 mph N/A   Overcast
3:34 PM 32.0 °F 21.2 °F 31.1 °F 96% 29.70 in 2.0 mi East 16.1 mph 24.2 mph 0.01 in Snow Light Snow
3:55 PM 32.0 °F 20.8 °F 31.8 °F 99% 29.69 in 2.5 mi East 17.3 mph 24.2 mph 0.01 in Snow Light Snow
4:15 PM 32.2 °F 21.4 °F 32.0 °F 99% 29.68 in 1.8 mi East 16.1 mph 29.9 mph N/A Snow Light Snow
4:34 PM 32.5 °F 22.3 °F 32.0 °F 98% 29.67 in 1.8 mi East 15.0 mph 25.3 mph 0.01 in Snow Light Snow
4:55 PM 32.7 °F 21.1 °F 32.2 °F 98% 29.65 in 3.0 mi East 19.6 mph 25.3 mph 0.02 in Snow Light Snow
5:14 PM 33.1 °F 21.5 °F 32.5 °F 98% 29.64 in 4.0 mi East 19.6 mph 28.8 mph N/A Snow Light Snow
5:35 PM 33.4 °F 22.7 °F 32.9 °F 98% 29.62 in 4.0 mi East 17.3 mph 31.1 mph 0.02 in Snow Light Snow
5:55 PM 33.8 °F 22.8 °F 32.9 °F 96% 29.61 in 4.0 mi East 18.4 mph 28.8 mph 0.02 in Snow Light Snow
6:14 PM 33.8 °F 23.2 °F 33.1 °F 97% 29.59 in 4.0 mi East 17.3 mph 31.1 mph 0.01 in Snow Light Snow
6:35 PM 34.2 °F 23.3 °F 33.4 °F 97% 29.58 in 4.0 mi East 18.4 mph 28.8 mph 0.02 in Snow Light Snow
6:55 PM 34.3 °F 22.9 °F 33.8 °F 98% 29.55 in 5.0 mi East 20.7 mph 31.1 mph 0.03 in Snow Light Snow
7:14 PM 34.7 °F 22.8 °F 33.8 °F 97% 29.53 in 5.0 mi East 23.0 mph 29.9 mph N/A Snow Light Snow
7:35 PM 34.7 °F 22.8 °F 34.2 °F 98% 29.52 in 4.0 mi East 23.0 mph 32.2 mph N/A Snow Light Snow
7:55 PM 35.1 °F 25.2 °F 34.3 °F 97% 29.52 in 5.0 mi ESE 16.1 mph 27.6 mph 0.01 in Snow Light Snow
8:14 PM 35.1 °F 24.8 °F 34.5 °F 98% 29.49 in 2.0 mi East 17.3 mph 29.9 mph 0.05 in Snow Light Snow
8:35 PM 35.2 °F 24.1 °F 34.7 °F 98% 29.49 in 2.0 mi East 20.7 mph 27.6 mph 0.16 in Snow Light Snow
8:54 PM 35.6 °F 26.6 °F 34.9 °F 97% 29.47 in 2.0 mi East 13.8 mph 25.3 mph 0.29 in Snow Light Snow
9:15 PM 35.8 °F 26.1 °F 35.2 °F 98% 29.44 in 2.0 mi East 16.1 mph 23.0 mph 0.06 in Snow Light Snow
9:35 PM 36.1 °F 26.2 °F 35.6 °F 98% 29.43 in 1.8 mi East 17.3 mph 25.3 mph 0.13 in Snow Light Snow
9:54 PM 36.5 °F 27.4 °F 35.8 °F 97% 29.41 in 2.0 mi East 15.0 mph 21.9 mph 0.18 in Snow Light Snow
10:15 PM 36.9 °F 28.2 °F 36.5 °F 99% 29.39 in 1.8 mi East 13.8 mph 19.6 mph 0.02 in Snow Light Snow
10:35 PM 37.4 °F 29.8 °F 36.7 °F 97% 29.38 in 1.8 mi ESE 11.5 mph 16.1 mph 0.06 in   Overcast
10:54 PM 38.3 °F 31.9 °F 37.9 °F 99% 29.36 in 1.5 mi ESE 9.2 mph - 0.09 in   Overcast
11:15 PM 39.0 °F 34.0 °F 38.7 °F 99% 29.35 in 1.2 mi ESE 6.9 mph - N/A Rain Rain
11:35 PM 40.8 °F 37.8 °F 40.6 °F 99% 29.33 in 0.5 mi SSE 4.6 mph - 0.02 in Rain Light Rain
11:54 PM 42.6 °F 36.8 °F 42.3 °F 99% 29.32 in 0.5 mi SSW 10.4 mph 17.3 mph 0.02 in Rain Rain